Regional Weather Roundup
Issued by NWS

Home | Current Version | Previous Version | Graphics & Text | Print | Product List | Glossary On
Versions: 1 2 3 4 5 6 7 8 9 10 11 12 13 14 15 16 17 18 19 20 21 22 23 24 25 26 27 28 29 30 31 32 33 34 35 36 37 38 39 40 41 42 43 44 45 46 47 48 49 50
000
ASUS43 KOAX 211802
RWRNE

WEATHER ROUNDUP FOR NEBRASKA
NATIONAL WEATHER SERVICE OMAHA NE
1200 PM CST TUE NOV 21 2017

NOTES: SATELLITE DATA IS BEING USED TO AUGMENT CLOUD COVER ABOVE
       12000 FEET.
       "FAIR" INDICATES FEW OR NO CLOUDS BELOW 12,000 FEET WITH NO
       SIGNIFICANT WEATHER AND/OR OBSTRUCTIONS TO VISIBILITY.


NEZ001>004-019>022-054>056-211900-
NEBRASKA PANHANDLE

CITY           SKY/WX    TMP DP  RH WIND       PRES   REMARKS
SCOTTSBLUFF    SUNNY     43  24  47 NW13G22   30.33S
6HR MIN TEMP:  31; 6HR MAX TEMP:  43;

ALLIANCE       CLOUDY    36  27  69 NW9       30.30S WCI  29
6HR MIN TEMP:  29; 6HR MAX TEMP:  36; 6HR PCP: TRACE;

CHADRON        MOSUNNY   35  26  69 W12       30.34R WCI  27
6HR MIN TEMP:  29; 6HR MAX TEMP:  35; 6HR PCP: TRACE;

GORDON         CLOUDY    32  21  63 NW13      30.32R WCI  22
6HR MIN TEMP:  28; 6HR MAX TEMP:  33;

KIMBALL        SUNNY     42  27  57 N23       30.28F
SIDNEY         MOSUNNY   40  27  59 N13       30.33R WCI  32
6HR MIN TEMP:  32; 6HR MAX TEMP:  40;

$$

NEZ057>060-069>072-079>082-211900-
SOUTHWEST NEBRASKA

CITY           SKY/WX    TMP DP  RH WIND       PRES   REMARKS
NORTH PLATTE   SUNNY     40  18  41 N14G31    30.31R WCI  32
6HR MIN TEMP:  32; 6HR MAX TEMP:  41;

IMPERIAL       SUNNY     44  23  43 N18G26    30.32R
6HR MIN TEMP:  34; 6HR MAX TEMP:  51;

LEXINGTON      SUNNY     42  23  47 N23       30.31R
MCCOOK         SUNNY     43  21  41 N21       30.30R
6HR MIN TEMP:  37; 6HR MAX TEMP:  46;

OGALLALA       MOSUNNY   42  22  44 N16G24    30.32R
$$

NEZ005>010-023>029-035>040-094-211900-
NORTH CENTRAL NEBRASKA

CITY           SKY/WX    TMP DP  RH WIND       PRES   REMARKS
VALENTINE      SUNNY     25   6  44 NW24G35   30.36R WCI   9
6HR MIN TEMP:  23; 6HR MAX TEMP:  33;

AINSWORTH      SUNNY     24   8  50 NW23      30.34S WCI   9
BROKEN BOW     SUNNY     36  15  42 N26G39    30.30R WCI  24
6HR MIN TEMP:  33; 6HR MAX TEMP:  37;

O`NEILL        SUNNY     23  14  69 NW18      30.34R WCI   8
ORD            SUNNY     31   8  38 N28G37    30.30R WCI  17
6HR MIN TEMP:  31; 6HR MAX TEMP:  35;

THEDFORD       SUNNY     34  19  53 N28       30.32S WCI  21
$$

NEZ041-046>049-061>064-073>077-083>087-211900-
SOUTH CENTRAL NEBRASKA

CITY           SKY/WX    TMP DP  RH WIND       PRES   REMARKS
GRAND ISLAND   SUNNY     35   9  33 N29G39    30.28R WCI  22
6HR MIN TEMP:  34; 6HR MAX TEMP:  40;

AURORA         SUNNY     35  10  36 N29G36    30.26R WCI  22
HASTINGS       SUNNY     38  13  35 N28G39    30.28R WCI  26
6HR MIN TEMP:  35; 6HR MAX TEMP:  41;

HEBRON         SUNNY     41  12  30 N28G36    30.23S
HOLDREGE       SUNNY     40  22  48 N24G33    30.28R WCI  30
KEARNEY        SUNNY     37  15  40 N29G37    30.28R WCI  25
$$

NEZ011>018-030>034-042>045-211900-
NORTHEAST NEBRASKA

CITY           SKY/WX    TMP DP  RH WIND       PRES   REMARKS
NORFOLK        SUNNY     26  10  50 NW23      30.28R WCI  11
6HR MIN TEMP:  23; 6HR MAX TEMP:  36;

ALBION         SUNNY     29  12  50 NW26G32   30.29R WCI  14
BLAIR          SUNNY     29  13  52 N21G30    30.23R WCI  15
COLUMBUS       SUNNY     28  12  51 NW25G33   30.28R WCI  13
FREMONT        SUNNY     29  12  49 N17G28    30.28R WCI  17
TEKAMAH        SUNNY     30  11  45 NW23G32   30.26R WCI  17
6HR MIN TEMP:  27; 6HR MAX TEMP:  40; 6HR PCP: TRACE;

WAYNE          SUNNY     26   6  43 N20G29    30.28R WCI  13
$$

NEZ050>053-065>068-078-088>093-211900-
SOUTHEAST NEBRASKA

CITY           SKY/WX    TMP DP  RH WIND       PRES   REMARKS
LINCOLN        SUNNY     36  10  34 N24G31    30.25R WCI  24
6HR MIN TEMP:  36; 6HR MAX TEMP:  42; 6HR PCP: TRACE;

OMAHA EPPLEY   SUNNY     31  13  47 N25G36    30.23R WCI  17
6HR MIN TEMP:  29; 6HR MAX TEMP:  41; 6HR PCP: TRACE;

BEATRICE       SUNNY     41  11  30 N18       30.22R
FALLS CITY     SUNNY     42   9  25 NW21G31   30.17R
6HR MIN TEMP:  42; 6HR MAX TEMP:  46;

NEBRASKA CITY  SUNNY     34  13  41 N23G31    30.20R WCI  22
PLATTSMOUTH    SUNNY     32  13  46 NW21G30   30.21R WCI  20
$$

NEZ044-045-051>053-067-211900-
OMAHA AREA

CITY           SKY/WX    TMP DP  RH WIND       PRES   REMARKS
OMAHA EPPLEY   SUNNY     31  13  47 N25G36    30.23R WCI  17
6HR MIN TEMP:  29; 6HR MAX TEMP:  41; 6HR PCP: TRACE;

BLAIR          SUNNY     29  13  52 N21G30    30.23R WCI  15
FREMONT        SUNNY     29  12  49 N17G28    30.28R WCI  17
MILLARD        SUNNY     30  12  47 NW18G32   30.24R WCI  18
OFFUTT AFB     SUNNY     32  12  42 NW20      30.22R WCI  21
PLATTSMOUTH    SUNNY     32  13  46 NW21G30   30.21R WCI  20
WAHOO          FAIR      30  11  45 N29G37    30.24S WCI  16
$$




USA.gov is the U.S. government's official web portal to all federal, state and local government web resources and services.